This is the latest recevied weather packets stored in our database for station/object N5ATR. If no packets are shown the sender has not sent any weather packets the latest 10 day(s).
| Time | Temp. | Humidity | Pressure | Rain* | Wind** | Luminosity | Snow |
|---|---|---|---|---|---|---|---|
| 1778077399 | 6.11° C | 70% | 1013.9 hPa | 0 mm | - | 244 W/m² | - |
| 1778077098 | 5.56° C | 72% | 1014 hPa | 0 mm | - | 228 W/m² | - |
| 1778076795 | 5.56° C | 73% | 1013.9 hPa | 0 mm | - | 212 W/m² | - |
| 1778076493 | 5.56° C | 73% | 1013.9 hPa | 0 mm | - | 154 W/m² | - |
| 1778076189 | 5.56° C | 73% | 1014 hPa | 0 mm | - | 39 W/m² | - |
| 1778075887 | 5.56° C | 74% | 1014 hPa | 0 mm | - | 37 W/m² | - |
| 1778075583 | 5° C | 74% | 1013.7 hPa | 0 mm | - | 35 W/m² | - |
| 1778075280 | 5° C | 75% | 1013.8 hPa | 0 mm | - | 35 W/m² | - |
| 1778074976 | 5° C | 76% | 1013.8 hPa | 0 mm | - | 33 W/m² | - |
| 1778074673 | 5° C | 76% | 1013.8 hPa | 0 mm | - | 39 W/m² | - |
| 1778074370 | 5° C | 76% | 1013.8 hPa | 0 mm | - | 33 W/m² | - |
| 1778074067 | 4.44° C | 76% | 1013.5 hPa | 0 mm | - | 50 W/m² | - |
| 1778073764 | 4.44° C | 77% | 1013.4 hPa | 0 mm | - | 33 W/m² | - |
| 1778073462 | 4.44° C | 77% | 1013.4 hPa | 0 mm | - | 28 W/m² | - |
| 1778073158 | 4.44° C | 76% | 1013.2 hPa | 0 mm | - | 27 W/m² | - |
| 1778072854 | 4.44° C | 77% | 1013 hPa | 0 mm | - | 26 W/m² | - |
| 1778072552 | 3.89° C | 77% | 1012.7 hPa | 0 mm | - | 25 W/m² | - |
| 1778072250 | 3.89° C | 77% | 1013.3 hPa | 0 mm | - | 24 W/m² | - |
| 1778071947 | 3.89° C | 80% | 1013.3 hPa | 0 mm | - | 23 W/m² | - |
| 1778071645 | 3.33° C | 81% | 1013.7 hPa | 0 mm | - | 20 W/m² | - |
| 1778071343 | 2.78° C | 83% | 1013.5 hPa | 0 mm | - | 17 W/m² | - |
| 1778071040 | 2.78° C | 84% | 1013.2 hPa | 0 mm | - | 14 W/m² | - |
| 1778070739 | 2.78° C | 83% | 1013.2 hPa | 0 mm | - | 12 W/m² | - |
| 1778070435 | 2.78° C | 83% | 1013 hPa | 0 mm | - | 10 W/m² | - |
| 1778070133 | 2.78° C | 83% | 1012.5 hPa | 0 mm | - | 7 W/m² | - |
* Rain latest hour (hover to see other rain measurements)
** Current wind speed in m/s (hover to see current wind gust speed)